Weather in Gvardeyskoye

Russia / Kaliningrad Oblast     54°29′14″N   20°38′08″E
temp.,
°C
wind,
m/s
gust,
m/s
humid.,
%
clouds,
%
prec.,
mm/h
press.,
hPa
HPBL,
m
2 july, sat
sat223:00+20nw71394100 4.7 1017443
02:00+19ese2496100 9.7 1017103
05:00+19w3598100 0.1 1017145
08:00+19wnw589698 0.1 1018467
11:00+19wnw5891100 0.4 1021612
14:00+17wnw5895100 2.3 1022697
17:00+19nw577892 1.1 1022912
20:00+17nw377913 1.1 1022430
3 july, sun
sun323:00+13nw22950 0.0 102325
02:00+12wnw33960 0.0 102357
05:00+12wnw22954 0.0 102227
08:00+18nnw23770 0.0 1022380
11:00+22n22600 0.0 10211040
14:00+24n22530 0.0 10211473
17:00+23nne32575 0.0 10201180
20:00+19nne24830 0.0 101982
4 july, mon
mon423:00+15e22860 0.0 101914
02:00+14se22928 0.0 101821
05:00+15sse22945 0.0 101737
08:00+20s2476100 0.0 1017276
11:00+24ssw3360100 0.0 10171002
14:00+26sw1251100 0.0 10161568
17:00+24nw347099 0.1 1016365
20:00+20nw358710 0.5 1016121
5 july, tue
tue523:00+16nw389691 0.2 1018198
02:00+15nnw128994 0.3 101818
05:00+14wnw2284100 0.0 101811
08:00+18nw2374100 0.0 1019260
11:00+21nw2359100 0.0 10191021
14:00+22wnw3358100 0.0 10191228
17:00+21nw336268 0.2 1019987
20:00+16nnw3788100 1.2 1019238
6 july, wed
wed623:00+13wsw11892 0.0 102011
02:00+13sw34895 0.0 102063
05:00+11wsw310934 0.0 1019204
08:00+17wsw59755 0.0 1019854
11:00+19w686760 0.3 10181341
14:00+19w686996 1.1 10181220
17:00+19wnw5105918 0.3 10181513
20:00+16wnw496841 0.3 1018953